Location: Góry Miechowskie
(50.3599°N, 20.1803°E)
Time: 16:47:10
(UTC+00:00)

Vanguard 1 Rocket - Pass Details

Date: 21 September 2024
Orbit: 650 x 4218 km, 34.3° (Epoch: 07 October)

Event Time Altitude Azimuth Distance (km) Brightness Sun altitude
Rises 05:46:51 0° 270° (W) 6,497 11.1 12.2°
Reaches altitude 10° 05:50:58 10° 264° (W) 5,900 11.0 12.8°
Maximum altitude 06:08:38 39° 204° (SSW) 5,077 11.3 15.5°
Drops below altitude 10° 06:30:57 10° 146° (SSE) 7,287 13.1 18.8°
Sets 06:36:56 0° 140° (SE) 8,092 13.4 19.7°
